| time (UTC) | temp F | wind direction | speed knots | gust knots | rain 1hr in | rain 24hr in | rain mn in | humidity % | barometer mb |
| 20260504100507 | 45 | 196 | 0.0 | 1.7 | 0.00 | 0.00 | 0.00 | 62 | 1012.8 |
| 20260504082004 | 45 | 196 | 0.0 | 1.7 | 0.00 | 0.00 | 0.00 | 62 | 1012.9 |
| 20260504081508 | 45 | 196 | 0.0 | 1.7 | 0.00 | 0.00 | 0.00 | 62 | 1012.9 |
| 20260504081003 | 45 | 196 | 0.0 | 1.7 | 0.00 | 0.00 | 0.00 | 62 | 1013.0 |
| 20260504080506 | 45 | 196 | 0.0 | 0.9 | 0.00 | 0.00 | 0.00 | 62 | 1013.0 |
| 20260504050508 | 45 | 239 | 0.0 | 0.0 | 0.00 | 0.00 | 0.00 | 62 | 1013.2 |
| 20260504045508 | 45 | 239 | 0.0 | 0.0 | 0.00 | 0.00 | 0.00 | 62 | 1013.2 |
| 20260504045008 | 45 | 239 | 0.0 | 0.0 | 0.00 | 0.00 | 0.00 | 62 | 1013.1 |
| 20260504044513 | 45 | 239 | 0.0 | 0.0 | 0.00 | 0.00 | 0.00 | 62 | 1013.3 |
| 20260504044005 | 45 | 239 | 0.0 | 0.0 | 0.00 | 0.00 | 0.00 | 62 | 1013.2 |
| 20260504043507 | 45 | 239 | 0.0 | 0.0 | 0.00 | 0.00 | 0.00 | 62 | 1013.3 |
| 20260504043022 | 45 | 239 | 0.0 | 0.0 | 0.00 | 0.00 | 0.00 | 62 | 1013.3 |
| 20260504042508 | 45 | 239 | 0.0 | 0.0 | 0.00 | 0.00 | 0.00 | 61 | 1013.3 |
| 20260504042008 | 45 | 239 | 0.0 | 0.0 | 0.00 | 0.00 | 0.00 | 62 | 1013.2 |
| 20260504041519 | 45 | 239 | 0.0 | 0.0 | 0.00 | 0.00 | 0.00 | 62 | 1013.2 |
| 20260504041007 | 45 | 239 | 0.0 | 0.0 | 0.00 | 0.00 | 0.00 | 62 | 1013.2 |
| 20260504040508 | 45 | 239 | 0.0 | 0.0 | 0.00 | 0.00 | 0.00 | 62 | 1013.2 |
| 20260504040029 | 46 | 239 | 0.0 | 0.0 | 0.00 | 0.00 | 0.00 | 62 | 1013.2 |
| 20260504035508 | 46 | 239 | 0.0 | 0.0 | 0.00 | 0.00 | 0.00 | 61 | 1013.3 |
| 20260504035009 | 46 | 239 | 0.0 | 0.0 | 0.00 | 0.00 | 0.00 | 61 | 1013.1 |
| 20260504034526 | 46 | 239 | 0.0 | 0.0 | 0.00 | 0.00 | 0.00 | 61 | 1013.0 |
| 20260504034008 | 46 | 239 | 0.0 | 0.0 | 0.00 | 0.00 | 0.00 | 61 | 1013.0 |
| 20260504033504 | 46 | 239 | 0.0 | 0.0 | 0.00 | 0.00 | 0.00 | 60 | 1012.9 |
| 20260504033013 | 46 | 239 | 0.0 | 0.0 | 0.00 | 0.00 | 0.00 | 59 | 1012.9 |
| 20260504032507 | 46 | 239 | 0.0 | 0.0 | 0.00 | 0.00 | 0.00 | 60 | 1012.9 |
| 20260504032010 | 47 | 239 | 0.0 | 0.0 | 0.00 | 0.00 | 0.00 | 61 | 1013.0 |
| 20260504031518 | 47 | 239 | 0.0 | 0.0 | 0.00 | 0.00 | 0.00 | 60 | 1012.9 |
| 20260504031008 | 47 | 239 | 0.0 | 0.0 | 0.00 | 0.00 | 0.00 | 59 | 1012.8 |
| 20260504030508 | 47 | 239 | 0.0 | 0.0 | 0.00 | 0.00 | 0.00 | 59 | 1012.8 |
| 20260504030024 | 48 | 239 | 0.0 | 0.0 | 0.00 | 0.00 | 0.00 | 58 | 1012.8 |
| 20260504025507 | 48 | 239 | 0.0 | 0.0 | 0.00 | 0.00 | 0.00 | 57 | 1012.8 |
| 20260504025013 | 48 | 239 | 0.0 | 0.0 | 0.00 | 0.00 | 0.00 | 57 | 1012.9 |
| 20260504024526 | 48 | 239 | 0.0 | 0.0 | 0.00 | 0.00 | 0.00 | 57 | 1012.9 |
| 20260504024008 | 48 | 239 | 0.0 | 0.0 | 0.00 | 0.00 | 0.00 | 57 | 1012.9 |
| 20260504023509 | 48 | 239 | 0.0 | 0.0 | 0.00 | 0.00 | 0.00 | 56 | 1012.9 |
| 20260504023028 | 49 | 239 | 0.0 | 0.0 | 0.00 | 0.00 | 0.00 | 56 | 1012.9 |
| 20260504022511 | 49 | 239 | 0.0 | 0.0 | 0.00 | 0.00 | 0.00 | 55 | 1012.9 |
| 20260504022005 | 49 | 239 | 0.0 | 0.0 | 0.00 | 0.00 | 0.00 | 55 | 1012.9 |
| 20260504021513 | 49 | 239 | 0.0 | 0.0 | 0.00 | 0.00 | 0.00 | 54 | 1012.9 |
| 20260504021008 | 49 | 239 | 0.0 | 0.0 | 0.00 | 0.00 | 0.00 | 54 | 1012.9 |
| 20260504020508 | 50 | 239 | 0.0 | 0.0 | 0.00 | 0.00 | 0.00 | 53 | 1012.9 |
| 20260504020018 | 50 | 239 | 0.0 | 0.0 | 0.00 | 0.00 | 0.00 | 53 | 1013.0 |
| 20260504015509 | 51 | 239 | 0.0 | 0.0 | 0.00 | 0.00 | 0.00 | 51 | 1012.9 |
| 20260504015008 | 51 | 239 | 0.0 | 0.0 | 0.00 | 0.00 | 0.00 | 51 | 1012.9 |
| 20260504014524 | 51 | 239 | 0.0 | 1.7 | 0.00 | 0.00 | 0.00 | 51 | 1012.9 |
| 20260504014009 | 51 | 239 | 0.0 | 1.7 | 0.00 | 0.00 | 0.00 | 50 | 1012.9 |
| 20260504013508 | 51 | 239 | 0.0 | 2.6 | 0.00 | 0.00 | 0.00 | 50 | 1012.9 |
| 20260504013031 | 51 | 239 | 0.9 | 2.6 | 0.00 | 0.00 | 0.00 | 51 | 1012.9 |
| 20260504012516 | 51 | 240 | 0.0 | 2.6 | 0.00 | 0.00 | 0.00 | 50 | 1012.8 |
| 20260504012010 | 52 | 240 | 0.9 | 2.6 | 0.00 | 0.00 | 0.00 | 50 | 1012.7 |
| 20260504011528 | 52 | 241 | 0.9 | 1.7 | 0.00 | 0.00 | 0.00 | 49 | 1012.7 |
| 20260504011012 | 52 | 241 | 0.9 | 1.7 | 0.00 | 0.00 | 0.00 | 50 | 1012.6 |
| 20260504010507 | 52 | 242 | 0.9 | 1.7 | 0.00 | 0.00 | 0.00 | 49 | 1012.6 |
| 20260504010018 | 53 | 317 | 0.0 | 2.6 | 0.00 | 0.00 | 0.00 | 48 | 1012.6 |
| 20260504005508 | 53 | 318 | 0.0 | 2.6 | 0.00 | 0.00 | 0.00 | 47 | 1012.7 |
| 20260504005009 | 53 | 321 | 0.9 | 2.6 | 0.00 | 0.00 | 0.00 | 48 | 1012.7 |
| 20260504004520 | 53 | 300 | 0.0 | 2.6 | 0.00 | 0.00 | 0.00 | 48 | 1012.6 |
| 20260504004009 | 53 | 205 | 0.0 | 2.6 | 0.00 | 0.00 | 0.00 | 48 | 1012.5 |
| 20260504003509 | 53 | 204 | 0.0 | 2.6 | 0.00 | 0.00 | 0.00 | 48 | 1012.5 |
| 20260504003026 | 53 | 202 | 0.0 | 2.6 | 0.00 | 0.00 | 0.00 | 47 | 1012.5 |
| 20260504002508 | 54 | 203 | 0.9 | 2.6 | 0.00 | 0.00 | 0.00 | 47 | 1012.5 |
| 20260504002010 | 54 | 234 | 0.0 | 2.6 | 0.00 | 0.00 | 0.00 | 46 | 1012.4 |
| 20260504001528 | 54 | 236 | 0.9 | 3.5 | 0.00 | 0.00 | 0.00 | 45 | 1012.2 |
| 20260504001011 | 55 | 281 | 0.0 | 3.5 | 0.00 | 0.00 | 0.00 | 44 | 1012.1 |
| 20260504000514 | 55 | 238 | 0.0 | 3.5 | 0.00 | 0.00 | 0.00 | 45 | 1012.0 |
| 20260504000030 | 55 | 189 | 0.9 | 3.5 | 0.00 | 0.00 | 0.00 | 44 | 1012.0 |
| 20260503235507 | 55 | 285 | 0.9 | 3.5 | 0.00 | 0.00 | 0.00 | 44 | 1012.0 |
| 20260503235010 | 56 | 256 | 0.9 | 3.5 | 0.00 | 0.00 | 0.00 | 43 | 1012.0 |
| 20260503234523 | 56 | 294 | 0.0 | 5.2 | 0.00 | 0.00 | 0.00 | 44 | 1011.8 |
| 20260503234003 | 56 | 250 | 1.7 | 7.8 | 0.00 | 0.00 | 0.00 | 43 | 1011.8 |
| 20260503233505 | 57 | 279 | 3.5 | 7.8 | 0.00 | 0.00 | 0.00 | 42 | 1011.7 |
| 20260503233003 | 57 | 219 | 1.7 | 9.6 | 0.00 | 0.00 | 0.00 | 42 | 1011.7 |
| 20260503232504 | 57 | 267 | 0.9 | 9.6 | 0.00 | 0.00 | 0.00 | 41 | 1011.7 |
| 20260503232006 | 58 | 265 | 3.5 | 7.8 | 0.00 | 0.00 | 0.00 | 41 | 1011.8 |
| 20260503231511 | 58 | 344 | 1.7 | 7.0 | 0.00 | 0.00 | 0.00 | 41 | 1011.8 |
| 20260503231004 | 58 | 242 | 1.7 | 9.6 | 0.00 | 0.00 | 0.00 | 42 | 1011.8 |
| 20260503230504 | 58 | 284 | 2.6 | 9.6 | 0.00 | 0.00 | 0.00 | 41 | 1011.7 |
| 20260503230014 | 58 | 292 | 3.5 | 9.6 | 0.00 | 0.00 | 0.00 | 40 | 1011.6 |
| 20260503225506 | 58 | 263 | 1.7 | 11.3 | 0.00 | 0.00 | 0.00 | 42 | 1011.6 |
| 20260503225008 | 58 | 284 | 5.2 | 11.3 | 0.00 | 0.00 | 0.00 | 40 | 1011.6 |
| 20260503224517 | 58 | 285 | 5.2 | 11.3 | 0.00 | 0.00 | 0.00 | 40 | 1011.5 |
| 20260503224011 | 58 | 262 | 4.3 | 11.3 | 0.00 | 0.00 | 0.00 | 40 | 1011.5 |
| 20260503223511 | 59 | 290 | 5.2 | 10.4 | 0.00 | 0.00 | 0.00 | 40 | 1011.6 |
| 20260503223021 | 59 | 299 | 4.3 | 10.4 | 0.00 | 0.00 | 0.00 | 40 | 1011.6 |
| 20260503222504 | 59 | 309 | 1.7 | 7.8 | 0.00 | 0.00 | 0.00 | 40 | 1011.5 |
| 20260503222004 | 59 | 316 | 4.3 | 9.6 | 0.00 | 0.00 | 0.00 | 40 | 1011.6 |
| 20260503221505 | 58 | 278 | 5.2 | 13.9 | 0.00 | 0.00 | 0.00 | 40 | 1011.7 |
| 20260503221006 | 58 | 284 | 5.2 | 13.9 | 0.00 | 0.00 | 0.00 | 41 | 1011.6 |
| 20260503220506 | 58 | 272 | 4.3 | 14.8 | 0.00 | 0.00 | 0.00 | 40 | 1011.6 |
| 20260503220011 | 58 | 134 | 7.8 | 14.8 | 0.00 | 0.00 | 0.00 | 39 | 1011.6 |
| 20260503215506 | 59 | 261 | 4.3 | 13.0 | 0.00 | 0.00 | 0.00 | 41 | 1011.5 |
| 20260503215011 | 59 | 303 | 4.3 | 12.2 | 0.00 | 0.00 | 0.00 | 40 | 1011.6 |
| 20260503214516 | 58 | 307 | 3.5 | 10.4 | 0.00 | 0.00 | 0.00 | 40 | 1011.5 |
| 20260503214007 | 59 | 288 | 5.2 | 12.2 | 0.00 | 0.00 | 0.00 | 40 | 1011.5 |
| 20260503213508 | 59 | 274 | 3.5 | 12.2 | 0.00 | 0.00 | 0.00 | 41 | 1011.5 |
| 20260503213019 | 58 | 334 | 4.3 | 12.2 | 0.00 | 0.00 | 0.00 | 39 | 1011.5 |
| 20260503212509 | 59 | 322 | 4.3 | 12.2 | 0.00 | 0.00 | 0.00 | 40 | 1011.5 |
| 20260503212010 | 59 | 289 | 4.3 | 12.2 | 0.00 | 0.00 | 0.00 | 42 | 1011.5 |
| 20260503211504 | 59 | 290 | 5.2 | 12.2 | 0.00 | 0.00 | 0.00 | 40 | 1011.5 |
| 20260503211003 | 58 | 281 | 4.3 | 17.4 | 0.00 | 0.00 | 0.00 | 42 | 1011.4 |
| 20260503210506 | 58 | 271 | 7.0 | 17.4 | 0.00 | 0.00 | 0.00 | 39 | 1011.5 |
| 20260503210015 | 57 | 279 | 4.3 | 10.4 | 0.00 | 0.00 | 0.00 | 43 | 1011.5 |
| 20260503205504 | 57 | 273 | 3.5 | 13.0 | 0.00 | 0.00 | 0.00 | 41 | 1011.6 |
| 20260503205007 | 58 | 271 | 5.2 | 13.9 | 0.00 | 0.00 | 0.00 | 39 | 1011.6 |
| 20260503204514 | 58 | 278 | 6.1 | 20.0 | 0.00 | 0.00 | 0.00 | 40 | 1011.6 |
| 20260503204009 | 58 | 306 | 6.1 | 20.0 | 0.00 | 0.00 | 0.00 | 42 | 1011.6 |
| 20260503203508 | 57 | 278 | 7.8 | 13.0 | 0.00 | 0.00 | 0.00 | 41 | 1011.6 |
| 20260503203019 | 58 | 274 | 4.3 | 12.2 | 0.00 | 0.00 | 0.00 | 42 | 1011.8 |
| 20260503202510 | 58 | 276 | 3.5 | 13.0 | 0.00 | 0.00 | 0.00 | 41 | 1011.7 |
| 20260503202012 | 58 | 279 | 5.2 | 13.0 | 0.00 | 0.00 | 0.00 | 42 | 1011.8 |
| 20260503201524 | 58 | 234 | 6.1 | 13.0 | 0.00 | 0.00 | 0.00 | 40 | 1011.7 |
| 20260503201008 | 58 | 236 | 4.3 | 13.0 | 0.00 | 0.00 | 0.00 | 42 | 1011.9 |
| 20260503200504 | 58 | 295 | 5.2 | 14.8 | 0.00 | 0.00 | 0.00 | 43 | 1011.9 |
| 20260503200009 | 58 | 285 | 4.3 | 14.8 | 0.00 | 0.00 | 0.00 | 40 | 1011.9 |
| 20260503195503 | 58 | 316 | 6.1 | 14.8 | 0.00 | 0.00 | 0.00 | 42 | 1012.0 |
| 20260503195003 | 57 | 331 | 8.7 | 14.8 | 0.00 | 0.00 | 0.00 | 42 | 1012.0 |
| 20260503194513 | 57 | 292 | 7.8 | 13.9 | 0.00 | 0.00 | 0.00 | 40 | 1012.1 |
| 20260503194008 | 58 | 292 | 4.3 | 12.2 | 0.00 | 0.00 | 0.00 | 45 | 1012.2 |
| 20260503193508 | 58 | 288 | 6.1 | 12.2 | 0.00 | 0.00 | 0.00 | 42 | 1012.1 |
| 20260503193015 | 58 | 298 | 3.5 | 10.4 | 0.00 | 0.00 | 0.00 | 44 | 1012.2 |
| 20260503192508 | 57 | 352 | 3.5 | 13.9 | 0.00 | 0.00 | 0.00 | 44 | 1012.3 |
| 20260503192007 | 56 | 295 | 5.2 | 13.9 | 0.00 | 0.00 | 0.00 | 42 | 1012.4 |
| 20260503191519 | 56 | 337 | 5.2 | 15.6 | 0.00 | 0.00 | 0.00 | 45 | 1012.5 |
| 20260503191009 | 56 | 328 | 4.3 | 15.6 | 0.00 | 0.00 | 0.00 | 43 | 1012.5 |
| 20260503190510 | 57 | 313 | 6.1 | 15.6 | 0.00 | 0.00 | 0.00 | 43 | 1012.5 |
| 20260503190041 | 57 | 301 | 4.3 | 15.6 | 0.00 | 0.00 | 0.00 | 42 | 1012.5 |
| 20260503185511 | 57 | 315 | 7.8 | 15.6 | 0.00 | 0.00 | 0.00 | 44 | 1012.7 |
| 20260503185004 | 57 | 290 | 5.2 | 11.3 | 0.00 | 0.00 | 0.00 | 42 | 1012.7 |
| 20260503184510 | 57 | 338 | 3.5 | 12.2 | 0.00 | 0.00 | 0.00 | 42 | 1012.7 |
| 20260503184007 | 57 | 337 | 5.2 | 12.2 | 0.00 | 0.00 | 0.00 | 42 | 1012.8 |
| 20260503183508 | 57 | 298 | 2.6 | 14.8 | 0.00 | 0.00 | 0.00 | 43 | 1012.9 |
| 20260503183016 | 56 | 319 | 7.8 | 14.8 | 0.00 | 0.00 | 0.00 | 42 | 1013.0 |
| 20260503182508 | 56 | 299 | 7.0 | 11.3 | 0.00 | 0.00 | 0.00 | 44 | 1012.9 |
| 20260503182010 | 55 | 273 | 5.2 | 11.3 | 0.00 | 0.00 | 0.00 | 40 | 1012.9 |
| 20260503181517 | 55 | 274 | 4.3 | 13.0 | 0.00 | 0.00 | 0.00 | 42 | 1013.0 |
| 20260503181010 | 56 | 293 | 6.1 | 14.8 | 0.00 | 0.00 | 0.00 | 42 | 1013.0 |
| 20260503180509 | 56 | 304 | 2.6 | 14.8 | 0.00 | 0.00 | 0.00 | 43 | 1013.0 |
| 20260503180034 | 56 | 325 | 8.7 | 14.8 | 0.00 | 0.00 | 0.00 | 42 | 1013.0 |
| 20260503175509 | 56 | 310 | 4.3 | 10.4 | 0.00 | 0.00 | 0.00 | 41 | 1013.1 |
| 20260503175008 | 56 | 221 | 4.3 | 14.8 | 0.00 | 0.00 | 0.00 | 44 | 1013.2 |
| 20260503174527 | 56 | 308 | 4.3 | 14.8 | 0.00 | 0.00 | 0.00 | 47 | 1013.2 |
| 20260503174005 | 55 | 297 | 3.5 | 18.2 | 0.00 | 0.00 | 0.00 | 43 | 1013.2 |
| 20260503173504 | 55 | 344 | 7.0 | 18.2 | 0.00 | 0.00 | 0.00 | 47 | 1013.2 |
| 20260503173012 | 53 | 310 | 2.6 | 15.6 | 0.00 | 0.00 | 0.00 | 47 | 1013.2 |
| 20260503172504 | 54 | 264 | 5.2 | 13.9 | 0.00 | 0.00 | 0.00 | 47 | 1013.3 |
| 20260503172004 | 54 | 5 | 5.2 | 13.9 | 0.00 | 0.00 | 0.00 | 46 | 1013.4 |
| 20260503171531 | 53 | 332 | 7.0 | 13.9 | 0.00 | 0.00 | 0.00 | 44 | 1013.4 |
| 20260503171008 | 52 | 266 | 3.5 | 10.4 | 0.00 | 0.00 | 0.00 | 47 | 1013.5 |
| 20260503170506 | 53 | 319 | 4.3 | 13.0 | 0.00 | 0.00 | 0.00 | 1013.6 | |
| 20260503151010 | 50 | 308 | 3.5 | 13.0 | 0.00 | 0.01 | 0.00 | 49 | 1014.4 |
| 20260503150507 | 50 | 327 | 2.6 | 13.0 | 0.00 | 0.01 | 0.00 | 49 | 1014.4 |
| 20260503131005 | 44 | 77 | 3.5 | 11.3 | 0.00 | 0.01 | 0.00 | 62 | 1014.9 |
| 20260503130511 | 43 | 313 | 2.6 | 11.3 | 0.00 | 0.01 | 0.00 | 61 | 1014.9 |
| 20260503110509 | 39 | 9 | 1.7 | 8.7 | 0.00 | 0.01 | 0.00 | 71 | 1014.1 |